"Pseudo-MPEC" for CARHLK2

Created 2024 Sep 8 6:22:06 UT using Find_Orb

Click here for an explanation of pseudo-MPECs

 
 Astrometry: 
     CARHLK2*1C2024 09 06.35000901 47 47.060+29 49 05.50   ~969q 19.76GVNEOCPG96
     CARHLK2 1C2024 09 06.35152501 47 49.640+29 49 11.60   ~969q 20.04GVNEOCPG96
     CARHLK2 1C2024 09 06.35217501 47 50.730+29 49 14.80   ~969q 20.32GVNEOCPG96
     CARHLK2 1C2024 09 06.43333501 50 05.790+29 55 14.20   ~96Aq 20.58GVNEOCPG96
     CARHLK2 1C2024 09 06.43480501 50 08.320+29 55 19.90   ~96Aq 20.18GVNEOCPG96
     CARHLK2 1C2024 09 06.43568501 50 09.780+29 55 23.70   ~96Aq 20.22GVNEOCPG96
     CARHLK2 1C2024 09 06.43593001 50 10.170+29 55 24.50   ~96Aq 19.98GVNEOCPG96
     CARHLK2 KB2024 09 06.86407 02 03 04.24 +30 23 11.1    ~96LM       ZNEOCP106
     CARHLK2 KB2024 09 06.86777 02 03 11.01 +30 23 26.7    ~96LM       ZNEOCP106
     CARHLK2 KB2024 09 06.87133 02 03 17.60 +30 23 42.0    ~96LM       ZNEOCP106
     CARHLK2 KB2024 09 06.87475 02 03 23.81 +30 23 55.7    ~96LM       ZNEOCP106
     CARHLK2 1C2024 09 06.88265 02 03 37.54 +30 24 17.1    ~96Lb 20.7 VXNEOCP033
     CARHLK2 1C2024 09 06.88335 02 03 38.85 +30 24 19.5    ~96Lb 20.2 VXNEOCP033
     CARHLK2 1C2024 09 06.88406 02 03 40.11 +30 24 23.1    ~96Lb 20.2 VXNEOCP033
     CARHLK2 KC2024 09 06.90602402 04 21.02 +30 26 04.3    ~96Mb 20.4 GXNEOCP595
     CARHLK2 KC2024 09 06.91374302 04 35.11 +30 26 35.7    ~96Mb 20.4 GXNEOCP595
     CARHLK2 KC2024 09 06.92146002 04 49.19 +30 27 07.0    ~96Mb 20.8 GXNEOCP595
     CARHLK2 KC2024 09 06.96812702 06 14.37 +30 30 15.7    ~96Nq 20.0 GVNEOCPL01
     CARHLK2 KC2024 09 06.96961302 06 17.08 +30 30 21.8    ~96Nq 20.4 GVNEOCPL01
     CARHLK2 KC2024 09 06.97109902 06 19.77 +30 30 27.3    ~96Nq 20.2 GVNEOCPL01
     CARHLK2 KC2024 09 06.97258102 06 22.49 +30 30 33.2    ~96Nq 20.5 GVNEOCPL01
     CARHLK2 KC2024 09 06.97406202 06 25.22 +30 30 39.1    ~96Nq 20.5 GVNEOCPL01
     CARHLK2 KC2024 09 07.32113902 17 24.12 +30 51 05.9    ~978M 20.3 GVNEOCPH21
     CARHLK2  C2024 09 07.32174402 17 28.520+30 51 11.53   ~978b 19.6 GVNEOCPH01
     CARHLK2 KC2024 09 07.32393802 17 29.40 +30 51 15.3    ~978M 20.2 GVNEOCPH21
     CARHLK2 KC2024 09 07.32673602 17 34.69 +30 51 24.5    ~978M 20.2 GVNEOCPH21
     CARHLK2  C2024 09 07.32692202 17 38.330+30 51 29.44   ~978b 20.0 GVNEOCPH01
     CARHLK2 KC2024 09 07.33093302 17 42.64 +30 51 38.4    ~978M 20.2 GVNEOCPH21
     CARHLK2 KC2024 09 07.33307802 17 46.68 +30 51 45.5    ~978M 20.2 GVNEOCPH21
     CARHLK2  C2024 09 07.33581502 17 55.211+30 52 00.07   ~978b 19.9 GVNEOCPH01
     CARHLK2  C2024 09 07.34413102 18 10.944+30 52 28.32   ~978b 20.1 GVNEOCPH01
     CARHLK2 KC2024 09 07.92252002 37 37.31 +31 17 12.8    ~97Mq 20.0 GVNEOCPK62
     CARHLK2 KC2024 09 07.92470802 37 41.78 +31 17 18.5    ~97Mq 20.1 GVNEOCPK62
     CARHLK2 KB2024 09 07.92844202 37 51.06 +31 17 26.3    ~97Mb 19.8 GXNEOCPI93
     CARHLK2 KC2024 09 07.92912502 37 50.85 +31 17 28.9    ~97Mq 20.2 GVNEOCPK62
     CARHLK2 KC2024 09 07.93130402 37 55.32 +31 17 34.1    ~97Mq 20.2 GVNEOCPK62
     CARHLK2 KB2024 09 07.93146702 37 57.34 +31 17 33.4    ~97Mb 20.2 GXNEOCPI93
     CARHLK2 1C2024 09 07.93306 02 37 59.01 +31 17 35.9    ~97Mb 20.4 VXNEOCP033
     CARHLK2 1C2024 09 07.93377 02 38 00.47 +31 17 37.7    ~97Mb 20.4 VXNEOCP033
     CARHLK2 1C2024 09 07.93448 02 38 01.95 +31 17 39.4    ~97Mb 20.6 VXNEOCP033
     CARHLK2 KB2024 09 07.93448502 38 03.52 +31 17 41.1    ~97Mb 20.4 GXNEOCPI93
     CARHLK2 1C2024 09 08.11240 02 44 07.02 +31 23 59.2    ~9837 20.2 VXNEOCP033
     CARHLK2 1C2024 09 08.11313 02 44 08.53 +31 24 00.5    ~9837 20.5 VXNEOCP033
     CARHLK2 1C2024 09 08.11384 02 44 10.00 +31 24 01.7    ~9837 20.2 VXNEOCP033
     CARHLK2 1C2024 09 08.11463 02 44 11.63 +31 24 03.1    ~9837 20.3 VXNEOCP033

Station data:
(033) Karl Schwarzschild Observatory, Tautenburg  (N50.980139 E11.711240)
   Germany.  Observer B. Stecklum. 1.34-m f/3 Schmidt + CCD.
(106) Črni Vrh  (N45.945905 E14.071100)  Slovenia.  Observer J. Skvarč. 0.6-m
   f/3.3 Deltagraph + CCD.
(595) Farra d'Isonzo  (N45.915731 E13.525780)  Italy.  Observers S. Aschi, E.
   Pettarin, G. Panterotto. Measurers S. Aschi, E. Pettarin. 0.40-m f/5.15
   reflector + CCD.
(G96) Mt. Lemmon Survey  (N32.442729 W110.788720)  US/Arizona.  Observer E.
   J. Christensen. 1.5-m reflector + 10K CCD.
(H01) Magdalena Ridge Observatory, Socorro  (N33.984833 W107.189333)  US/New
   Mexico.  Observers W. H. Ryan, E. V. Ryan. Measurer W. H. Ryan. 2.4-m
   f/8.9 reflector + CCD.
(H21) Astronomical Research Observatory, Westfield  (N39.483054 W87.968270)
   US/Illinois.  Observer R. Holmes. Measurers S. Foglia, L. Buzzi, T.
   Linder, R. Holmes. 0.76-m f/3.0 astrograph + CCD0.81-m f/4.0 astrograph +
   CCD0.61-m f/4.5 astrograph + CCD0.40-m f/5.32 astrograph + CCD.
(I93) St Pardon de Conques  (N44.558670 W0.202960)  France.  Observers F.
   Losse, W. D'Anna. Measurer F. Losse. 0.40-m f/3.7 reflector + CCD.
(K62) Teplice Observatory  (N50.638318 E13.846750)  Czech Republic.  Observer
   Z. Moravec. 0.43-m f/4.5 reflector + CCD.
(L01) Višnjan Observatory, Tičan  (N45.290897 E13.749300)  Croatia.
   Observers K. Korlević, D. Pujagic, V. Dobos. Measurers D. Pujagic, K.
   Korlević. 1.0-m f/2.9 reflector + CCD.

Orbital elements:  CARHLK2
   Perihelion 2024 Oct 20.65995 +/- 0.0248 TT = 15:50:20 (JD 2460604.15995)
Epoch 2024 Sep  8.0 TT = JDT 2460561.5   Earth MOID: 0.0034      AutoNEOCP
M 341.95339584 +/- 0.059            (J2000 ecliptic)
n   0.42303384 +/- 0.00115          Peri.  228.64858 +/- 0.014
a   1.75746211 +/- 0.00318          Node   174.88877 +/- 0.0057
e   0.4972051 +/- 0.000969          Incl.    6.32860 +/- 0.008
P   2.330/850.980d         H 24.63  G  0.15   U  8.2
q 0.88364288 +/- 0.000112    Q 2.63128134 +/- 0.00646
From 45 observations 2024 Sept. 6-8 (42.4 hr); mean residual 0".28
Residuals in arcseconds: 
240906 G96  .74-  .63+    240906 595  .44+  .20-    240907 H01  .18-  .15-    
240906 G96  .09+  .18-    240906 595  .25+  .31-    240907 K62  .09+  .16+    
240906 G96  .24+  .06+    240906 L01  .41-  .10-    240907 K62  .19-  .47+    
240906 G96  .58-  .60+    240906 L01  .43-  .14+    240907 I93  .41-  .29+    
240906 G96  .33+  .01+    240906 L01  .71-  .21-    240907 K62  .12-  .02+    
240906 G96  .17+  .04+    240906 L01  .51-  .14-    240907 K62  .14-  .11-    
240906 G96  .09-  .20-    240906 L01  .15-  .06-    240907 I93  .12+  .22-    
240906 106  .13-  .20-    240907 H21  .10+  .06+    240907 033  .08-  .06-    
240906 106  .11-  .02-    240907 H01  .04+  .08-    240907 033  .05-  .00     
240906 106  .91+  .46+    240907 H21  .01-  .12+    240907 033  .23+  .03-    
240906 106  .34+  .06-    240907 H21  .03+  .01+    240907 I93  .44-  .08-    
240906 033  .14-  .01+    240907 H01  .05-  .11-    240908 033  .17+  .04+    
240906 033  .22+  .47-    240907 H21  .25+  .01+    240908 033  .27+  .03+    
240906 033  .30-  .22+    240907 H21  .06+  .03+    240908 033  .38+  .04-    
240906 595  .57+  .05-    240907 H01  .23+  .06-    240908 033  .43+  .05-    

Ephemerides (geocentric):
Date (UTC) HH   RA             Dec           delta  r     elong  mag " sig PA
---- --------  ------------   ------------  ------ ------ -----  --- --------
2024 09 08 06  02 48 58.599   +31 28 39.95  .05245 1.0312 115.5 20.5 .160 149
2024 09 08 07  02 50 27.617   +31 29 40.43  .05237 1.0309 115.3 20.5 .158 152
2024 09 08 08  02 51 56.926   +31 30 37.18  .05229 1.0307 115.0 20.5 .157 155
2024 09 08 09  02 53 26.522   +31 31 30.14  .05221 1.0304 114.8 20.5 .155 158
2024 09 08 10  02 54 56.397   +31 32 19.29  .05214 1.0301 114.5 20.5 .154 161
2024 09 08 11  02 56 26.545   +31 33 04.59  .05207 1.0299 114.3 20.5 .153 164
2024 09 08 12  02 57 56.961   +31 33 45.99  .05199 1.0296 114.0 20.5 .153 168
2024 09 08 13  02 59 27.636   +31 34 23.46  .05192 1.0294 113.7 20.5 .153 171
2024 09 08 14  03 00 58.566   +31 34 56.97  .05185 1.0291 113.5 20.5 .153 175
2024 09 08 15  03 02 29.742   +31 35 26.48  .05179 1.0289 113.2 20.5 .154 179
2024 09 08 16  03 04 01.158   +31 35 51.96  .05172 1.0286 113.0 20.5 .156   3
2024 09 08 17  03 05 32.807   +31 36 13.37  .05166 1.0284 112.7 20.5 .159   7
2024 09 08 18  03 07 04.682   +31 36 30.68  .05160 1.0281 112.4 20.5 .162  11
2024 09 08 19  03 08 36.775   +31 36 43.87  .05154 1.0279 112.2 20.6 .166  15
2024 09 08 20  03 10 09.079   +31 36 52.90  .05148 1.0276 111.9 20.6 .171  19
2024 09 08 21  03 11 41.586   +31 36 57.75  .05142 1.0274 111.6 20.6 .176  23
2024 09 08 22  03 13 14.290   +31 36 58.38  .05137 1.0271 111.4 20.6 .183  26
2024 09 08 23  03 14 47.181   +31 36 54.78  .05131 1.0269 111.1 20.6 .190  30
2024 09 09 00  03 16 20.253   +31 36 46.92  .05126 1.0266 110.8 20.6 .198  33
2024 09 09 01  03 17 53.497   +31 36 34.77  .05121 1.0263 110.6 20.6 .207  37
2024 09 09 02  03 19 26.905   +31 36 18.31  .05116 1.0261 110.3 20.6 .217  40
2024 09 09 03  03 21 00.470   +31 35 57.53  .05111 1.0258 110.0 20.6 .227  42
2024 09 09 04  03 22 34.183   +31 35 32.40  .05107 1.0256 109.7 20.6 .238  45
2024 09 09 05  03 24 08.036   +31 35 02.91  .05103 1.0253 109.5 20.6 .250  48
2024 09 09 06  03 25 42.021   +31 34 29.03  .05098 1.0251 109.2 20.6 .263  50
2024 09 09 07  03 27 16.128   +31 33 50.77  .05094 1.0248 108.9 20.6 .276  52
2024 09 09 08  03 28 50.351   +31 33 08.09  .05091 1.0246 108.6 20.6 .289  54
2024 09 09 09  03 30 24.679   +31 32 20.98  .05087 1.0243 108.4 20.6 .304  56
2024 09 09 10  03 31 59.105   +31 31 29.45  .05083 1.0241 108.1 20.6 .319  58
2024 09 09 11  03 33 33.620   +31 30 33.47  .05080 1.0238 107.8 20.6 .334  60
2024 09 09 12  03 35 08.215   +31 29 33.05  .05077 1.0236 107.5 20.7 .350  62
2024 09 09 13  03 36 42.882   +31 28 28.17  .05074 1.0233 107.3 20.7 .367  63
2024 09 09 14  03 38 17.611   +31 27 18.82  .05071 1.0231 107.0 20.7 .384  65
2024 09 09 15  03 39 52.395   +31 26 05.01  .05069 1.0228 106.7 20.7 .401  66
2024 09 09 16  03 41 27.223   +31 24 46.74  .05066 1.0226 106.4 20.7 .420  67
2024 09 09 17  03 43 02.088   +31 23 24.00  .05064 1.0223 106.2 20.7 .438  69
2024 09 09 18  03 44 36.979   +31 21 56.79  .05062 1.0221 105.9 20.7 .457  70
2024 09 09 19  03 46 11.890   +31 20 25.12  .05060 1.0218 105.6 20.7 .477  71
2024 09 09 20  03 47 46.810   +31 18 49.00  .05058 1.0216 105.3 20.7 .496  72
2024 09 09 21  03 49 21.730   +31 17 08.42  .05057 1.0213 105.1 20.7 .517  73
2024 09 09 22  03 50 56.643   +31 15 23.39  .05055 1.0211 104.8 20.7 .537  74
2024 09 09 23  03 52 31.538   +31 13 33.93  .05054 1.0208 104.5 20.7 .559  75
2024 09 10 00  03 54 06.407   +31 11 40.05  .05053 1.0206 104.2 20.7 .580  76
2024 09 10 01  03 55 41.241   +31 09 41.75  .05052 1.0203 103.9 20.8 .602  76
2024 09 10 02  03 57 16.031   +31 07 39.05  .05051 1.0201 103.7 20.8 .624  77
2024 09 10 03  03 58 50.769   +31 05 31.97  .05051 1.0198 103.4 20.8 .647  78
2024 09 10 04  04 00 25.445   +31 03 20.52  .05051 1.0196 103.1 20.8 .670  79
2024 09 10 05  04 02 00.051   +31 01 04.72  .05050 1.0193 102.8 20.8 .694  79